| time (UTC) | temp F | wind direction | speed knots | gust knots | rain 1hr in | rain 24hr in | rain mn in | humidity % | barometer mb |
| 20260906071529 | 70 | 124 | 0.0 | 2.6 | 0.00 | 0.31 | 0.00 | 73 | 1011.8 |
| 20260906070032 | 70 | 138 | 0.0 | 0.9 | 0.00 | 0.31 | 0.00 | 73 | 1011.9 |
| 20260906064516 | 71 | 135 | 0.0 | 0.9 | 0.00 | 0.31 | 0.00 | 74 | 1012.3 |
| 20260906063024 | 70 | 132 | 0.0 | 1.7 | 0.00 | 0.31 | 0.00 | 74 | 1012.6 |
| 20260906061535 | 70 | 120 | 0.9 | 1.7 | 0.00 | 0.31 | 0.00 | 74 | 1012.8 |
| 20260906060034 | 70 | 119 | 0.0 | 0.9 | 0.00 | 0.31 | 0.00 | 74 | 1012.8 |
| 20260906054552 | 70 | 118 | 0.0 | 2.6 | 0.00 | 0.31 | 0.00 | 74 | 1013.0 |
| 20260906053018 | 70 | 130 | 0.0 | 1.7 | 0.00 | 0.31 | 0.00 | 74 | 1012.9 |
| 20260906051525 | 71 | 117 | 0.9 | 1.7 | 0.00 | 0.31 | 0.00 | 74 | 1013.1 |
| 20260906050030 | 71 | 121 | 0.9 | 2.6 | 0.00 | 0.31 | 0.00 | 74 | 1013.2 |
| 20260906044536 | 71 | 119 | 0.0 | 2.6 | 0.00 | 0.31 | 0.00 | 74 | 1013.2 |
| 20260906043033 | 72 | 114 | 0.9 | 2.6 | 0.00 | 0.31 | 0.00 | 74 | 1013.4 |
| 20260906041524 | 72 | 124 | 0.9 | 1.7 | 0.00 | 0.31 | 0.00 | 74 | 1013.3 |
| 20260906040054 | 72 | 129 | 0.0 | 0.9 | 0.00 | 0.31 | 0.00 | 74 | 1013.6 |
| 20260906034533 | 72 | 129 | 0.0 | 1.7 | 0.00 | 0.31 | 0.31 | 74 | 1013.6 |
| 20260906033044 | 73 | 118 | 1.7 | 2.6 | 0.00 | 0.31 | 0.31 | 74 | 1013.6 |
| 20260906031535 | 73 | 127 | 0.0 | 0.9 | 0.00 | 0.31 | 0.31 | 74 | 1013.6 |
| 20260906030026 | 73 | 127 | 0.0 | 1.7 | 0.00 | 0.31 | 0.31 | 74 | 1013.4 |
| 20260906024529 | 73 | 143 | 0.0 | 0.9 | 0.00 | 0.31 | 0.31 | 74 | 1013.3 |
| 20260906023031 | 73 | 127 | 0.0 | 0.9 | 0.00 | 0.31 | 0.31 | 74 | 1013.3 |
| 20260906021534 | 73 | 122 | 0.0 | 2.6 | 0.00 | 0.31 | 0.31 | 74 | 1013.1 |
| 20260906020034 | 73 | 116 | 0.0 | 1.7 | 0.00 | 0.31 | 0.31 | 74 | 1013.1 |
| 20260906014529 | 73 | 134 | 0.0 | 1.7 | 0.00 | 0.31 | 0.31 | 74 | 1013.0 |
| 20260906013006 | 74 | 143 | 0.0 | 0.9 | 0.00 | 0.31 | 0.31 | 74 | 1012.9 |
| 20260906011514 | 74 | 149 | 0.0 | 0.9 | 0.00 | 0.31 | 0.31 | 74 | 1012.7 |
| 20260906010018 | 76 | 167 | 0.0 | 0.0 | 0.00 | 0.31 | 0.31 | 74 | 1012.8 |
| 20260906004523 | 77 | 168 | 0.0 | 0.9 | 0.00 | 0.31 | 0.31 | 74 | 1013.0 |
| 20260906003027 | 76 | 167 | 0.0 | 0.0 | 0.00 | 0.31 | 0.31 | 74 | 1012.8 |
| 20260906001507 | 77 | 167 | 0.0 | 0.0 | 0.00 | 0.31 | 0.31 | 74 | 1012.4 |
| 20260906000009 | 78 | 167 | 0.0 | 0.0 | 0.00 | 0.31 | 0.31 | 75 | 1012.2 |
| 20260905234518 | 80 | 149 | 0.0 | 0.9 | 0.00 | 0.31 | 0.31 | 75 | 1012.1 |
| 20260905233020 | 85 | 126 | 0.0 | 0.9 | 0.00 | 0.31 | 0.31 | 75 | 1012.2 |
| 20260905231527 | 85 | 125 | 0.0 | 0.9 | 0.00 | 0.31 | 0.31 | 76 | 1012.0 |
| 20260905230006 | 85 | 124 | 0.0 | 1.7 | 0.00 | 0.31 | 0.31 | 75 | 1011.9 |
| 20260905224520 | 85 | 105 | 0.9 | 2.6 | 0.00 | 0.31 | 0.31 | 75 | 1012.0 |
| 20260905223020 | 85 | 92 | 0.9 | 5.2 | 0.00 | 0.31 | 0.31 | 75 | 1012.0 |
| 20260905221522 | 85 | 354 | 3.5 | 5.2 | 0.00 | 0.31 | 0.31 | 75 | 1011.8 |
| 20260905220027 | 85 | 325 | 1.7 | 6.1 | 0.00 | 0.31 | 0.31 | 75 | 1011.9 |
| 20260905214507 | 84 | 27 | 2.6 | 6.1 | 0.00 | 0.31 | 0.31 | 75 | 1012.3 |
| 20260905213011 | 83 | 27 | 4.3 | 5.2 | 0.00 | 0.31 | 0.31 | 75 | 1012.7 |
| 20260905211536 | 82 | 11 | 2.6 | 6.1 | 0.00 | 0.31 | 0.31 | 75 | 1012.4 |
| 20260905210038 | 80 | 344 | 3.5 | 6.1 | 0.00 | 0.31 | 0.31 | 75 | 1012.4 |
| 20260905204532 | 76 | 39 | 1.7 | 2.6 | 0.00 | 0.31 | 0.31 | 74 | 1012.2 |
| 20260905203008 | 76 | 130 | 0.0 | 2.6 | 0.00 | 0.31 | 0.31 | 74 | 1012.1 |
| 20260905201512 | 74 | 89 | 0.9 | 3.5 | 0.00 | 0.31 | 0.31 | 74 | 1012.6 |
| 20260905200026 | 74 | 145 | 0.9 | 5.2 | 0.00 | 0.31 | 0.31 | 74 | 1012.9 |
| 20260905194527 | 74 | 309 | 0.9 | 1.7 | 0.00 | 0.31 | 0.31 | 74 | 1013.1 |
| 20260905193031 | 74 | 185 | 0.0 | 1.7 | 0.00 | 0.31 | 0.31 | 74 | 1013.0 |
| 20260905191508 | 73 | 136 | 2.6 | 3.5 | 0.00 | 0.31 | 0.31 | 74 | 1012.7 |
| 20260905190014 | 72 | 188 | 0.0 | 5.2 | 0.00 | 0.31 | 0.31 | 74 | 1012.3 |
| 20260905184529 | 72 | 156 | 0.0 | 1.7 | 0.07 | 0.31 | 0.31 | 74 | 1012.1 |
| 20260905183029 | 71 | 195 | 0.0 | 1.7 | 0.31 | 0.31 | 0.31 | 74 | 1012.2 |
| 20260905181532 | 70 | 78 | 1.7 | 6.1 | 0.31 | 0.31 | 0.31 | 74 | 1013.2 |
| 20260905180014 | 70 | 232 | 4.3 | 13.0 | 0.31 | 0.31 | 0.31 | 74 | 1013.2 |
| 20260905174524 | 73 | 151 | 13.9 | 30.4 | 0.24 | 0.24 | 0.24 | 74 | 1015.0 |
| 20260905173024 | 93 | 49 | 1.7 | 7.8 | 0.00 | 0.00 | 0.00 | 76 | 1013.9 |
| 20260905171531 | 95 | 115 | 2.6 | 6.1 | 0.00 | 0.00 | 0.00 | 77 | 1013.8 |
| 20260905170033 | 95 | 108 | 3.5 | 6.1 | 0.00 | 0.00 | 0.00 | 77 | 1013.8 |
| 20260905164523 | 95 | 187 | 1.7 | 6.1 | 0.00 | 0.00 | 0.00 | 77 | 1013.8 |
| 20260905163024 | 94 | 47 | 3.5 | 7.8 | 0.00 | 0.00 | 0.00 | 77 | 1014.0 |
| 20260905161526 | 93 | 4 | 3.5 | 8.7 | 0.00 | 0.00 | 0.00 | 76 | 1014.2 |
| 20260905160008 | 93 | 128 | 1.7 | 5.2 | 0.00 | 0.00 | 0.00 | 76 | 1014.5 |
| 20260905154512 | 93 | 142 | 2.6 | 7.8 | 0.00 | 0.00 | 0.00 | 76 | 1014.4 |
| 20260905153019 | 92 | 29 | 2.6 | 5.2 | 0.00 | 0.00 | 0.00 | 76 | 1014.3 |
| 20260905151525 | 91 | 34 | 0.9 | 6.1 | 0.00 | 0.00 | 0.00 | 76 | 1014.3 |
| 20260905150030 | 91 | 341 | 0.9 | 4.3 | 0.00 | 0.00 | 0.00 | 76 | 1014.3 |
| 20260905144532 | 88 | 195 | 0.9 | 6.1 | 0.00 | 0.00 | 0.00 | 76 | 1014.4 |
| 20260905143011 | 87 | 338 | 3.5 | 5.2 | 0.00 | 0.00 | 0.00 | 76 | 1014.5 |
| 20260905141519 | 85 | 42 | 1.7 | 4.3 | 0.00 | 0.00 | 0.00 | 75 | 1014.6 |
| 20260905140025 | 85 | 72 | 0.9 | 3.5 | 0.00 | 0.00 | 0.00 | 75 | 1014.3 |
| 20260905134529 | 83 | 19 | 1.7 | 2.6 | 0.00 | 0.00 | 0.00 | 75 | 1014.5 |
| 20260905133037 | 82 | 72 | 1.7 | 3.5 | 0.00 | 0.00 | 0.00 | 75 | 1014.7 |
| 20260905131523 | 81 | 122 | 0.9 | 2.6 | 0.00 | 0.00 | 0.00 | 75 | 1014.6 |
| 20260905130017 | 80 | 117 | 0.9 | 2.6 | 0.00 | 0.00 | 0.00 | 75 | 1014.9 |
| 20260905124526 | 77 | 114 | 0.0 | 0.9 | 0.00 | 0.00 | 0.00 | 74 | 1014.8 |
| 20260905123030 | 76 | 126 | 0.0 | 0.9 | 0.00 | 0.00 | 0.00 | 74 | 1014.9 |
| 20260905121531 | 74 | 132 | 0.0 | 0.9 | 0.00 | 0.00 | 0.00 | 74 | 1014.7 |
| 20260905120034 | 72 | 123 | 0.9 | 1.7 | 0.00 | 0.00 | 0.00 | 74 | 1014.5 |
| 20260905114522 | 71 | 131 | 0.0 | 0.0 | 0.00 | 0.00 | 0.00 | 74 | 1014.4 |
| 20260905113038 | 0 | 0.0 | 0.0 | 0.00 | 0.00 | 0.00 | 1014.4 | ||
| 20260905111536 | 0 | 0.0 | 0.0 | 0.00 | 0.00 | 0.00 | 1014.3 | ||
| 20260905110037 | 0 | 0.0 | 0.0 | 0.00 | 0.00 | 0.00 | 1014.0 | ||
| 20260905104540 | 0 | 0.0 | 0.0 | 0.00 | 0.00 | 0.00 | 1013.9 | ||
| 20260905103038 | 0 | 0.0 | 0.0 | 0.00 | 0.00 | 0.00 | 1013.8 | ||
| 20260905101544 | 0 | 0.0 | 0.0 | 0.00 | 0.00 | 0.00 | 1013.7 | ||
| 20260905100108 | 0 | 0.0 | 0.0 | 0.00 | 0.00 | 0.00 | 1013.7 | ||
| 20260905094545 | 0 | 0.0 | 0.0 | 0.00 | 0.00 | 0.00 | 1013.7 | ||
| 20260905093038 | 0 | 0.0 | 0.0 | 0.00 | 0.00 | 0.00 | 1013.5 | ||
| 20260905091550 | 0 | 0.0 | 0.0 | 0.00 | 0.00 | 0.00 | 1013.6 | ||
| 20260905090036 | 0 | 0.0 | 0.0 | 0.00 | 0.00 | 0.00 | 1013.7 | ||
| 20260905084543 | 0 | 0.0 | 0.0 | 0.00 | 0.00 | 0.00 | 1013.7 | ||
| 20260905083051 | 0 | 140 | 0.0 | 0.9 | 0.00 | 0.00 | 0.00 | 74 | 1014.0 |
| 20260905081533 | 72 | 139 | 0.0 | 0.9 | 0.00 | 0.00 | 0.00 | 74 | 1014.0 |
| 20260905080031 | 72 | 139 | 0.0 | 0.9 | 0.00 | 0.00 | 0.00 | 74 | 1014.2 |
| 20260905074537 | 72 | 129 | 0.0 | 1.7 | 0.00 | 0.00 | 0.00 | 74 | 1014.3 |
| 20260905073026 | 72 | 117 | 0.0 | 1.7 | 0.00 | 0.00 | 0.00 | 74 | 1014.3 |